Location: Seattle
(47.6064°N, 122.3308°W)
Time: 03:28:51
(UTC-08:00)

N. Korean satellite - Pass Details

Date: 30 October 2020
Orbit: 453 x 503 km, 97.2° (Epoch: 03 December)

Event Time Altitude Azimuth Distance (km) Brightness Sun altitude
Rises 06:29:25 0° 17° (NNE) 2,481 10.3 -14.3°
Reaches altitude 10° 06:31:31 10° 22° (NNE) 1,600 9.4 -13.9°
Maximum altitude 06:34:51 50° 100° (E) 584 7.4 -13.4°
Drops below altitude 10° 06:38:10 10° 177° (S) 1,589 9.3 -12.8°
Sets 06:40:14 0° 183° (S) 2,460 10.2 -12.5°
